| time (UTC) | temp F | wind direction | speed knots | gust knots | rain 1hr in | rain 24hr in | rain mn in | humidity % | barometer mb |
| 20260831111621 | 77 | 152 | 0.0 | 0.0 | 0.00 | 0.00 | 0.00 | 91 | 1014.6 |
| 20260831111125 | 77 | 152 | 0.0 | 0.0 | 0.00 | 0.00 | 0.00 | 92 | 1014.6 |
| 20260831110631 | 77 | 151 | 0.0 | 0.0 | 0.00 | 0.00 | 0.00 | 92 | 1014.6 |
| 20260831110041 | 77 | 151 | 0.0 | 0.0 | 0.00 | 0.00 | 0.00 | 92 | 1014.6 |
| 20260831105545 | 77 | 151 | 0.0 | 0.0 | 0.00 | 0.00 | 0.00 | 92 | 1014.6 |
| 20260831105155 | 77 | 151 | 0.0 | 0.0 | 0.00 | 0.00 | 0.00 | 92 | 1014.6 |
| 20260831104554 | 77 | 151 | 0.0 | 0.0 | 0.00 | 0.00 | 0.00 | 92 | 1014.6 |
| 20260831104107 | 77 | 151 | 0.0 | 0.0 | 0.00 | 0.00 | 0.00 | 92 | 1014.6 |
| 20260831103617 | 77 | 151 | 0.0 | 0.0 | 0.00 | 0.00 | 0.00 | 92 | 1014.5 |
| 20260831103041 | 77 | 151 | 0.0 | 0.0 | 0.00 | 0.00 | 0.00 | 92 | 1014.5 |
| 20260831102650 | 77 | 151 | 0.0 | 0.0 | 0.00 | 0.00 | 0.00 | 92 | 1014.5 |
| 20260831102138 | 76 | 151 | 0.0 | 0.0 | 0.00 | 0.00 | 0.00 | 92 | 1014.5 |
| 20260831101602 | 76 | 151 | 0.0 | 0.0 | 0.00 | 0.00 | 0.00 | 92 | 1014.6 |
| 20260831101115 | 76 | 151 | 0.0 | 0.0 | 0.00 | 0.00 | 0.00 | 91 | 1014.5 |
| 20260831100054 | 76 | 151 | 0.0 | 0.0 | 0.00 | 0.00 | 0.00 | 91 | 1014.5 |
| 20260831095606 | 76 | 151 | 0.0 | 0.0 | 0.00 | 0.00 | 0.00 | 91 | 1014.5 |
| 20260831094609 | 76 | 150 | 0.0 | 0.0 | 0.00 | 0.00 | 0.00 | 91 | 1014.5 |
| 20260831094053 | 76 | 150 | 0.0 | 1.7 | 0.00 | 0.00 | 0.00 | 91 | 1014.5 |
| 20260831093605 | 77 | 150 | 0.0 | 4.3 | 0.00 | 0.00 | 0.00 | 91 | 1014.5 |
| 20260831093131 | 77 | 150 | 1.7 | 4.3 | 0.00 | 0.00 | 0.00 | 90 | 1014.5 |
| 20260831092644 | 77 | 150 | 0.9 | 5.2 | 0.00 | 0.00 | 0.00 | 89 | 1014.6 |
| 20260831092127 | 77 | 150 | 2.6 | 5.2 | 0.00 | 0.00 | 0.00 | 89 | 1014.6 |
| 20260831091557 | 77 | 175 | 0.9 | 2.6 | 0.00 | 0.00 | 0.00 | 89 | 1014.5 |
| 20260831091107 | 77 | 180 | 0.0 | 0.0 | 0.00 | 0.00 | 0.00 | 89 | 1014.4 |
| 20260831090109 | 77 | 180 | 0.0 | 0.0 | 0.00 | 0.00 | 0.00 | 89 | 1014.5 |
| 20260831085552 | 78 | 180 | 0.0 | 0.0 | 0.00 | 0.00 | 0.00 | 89 | 1014.5 |
| 20260831084613 | 78 | 180 | 0.0 | 0.0 | 0.00 | 0.00 | 0.00 | 89 | 1014.5 |
| 20260831084105 | 78 | 181 | 0.0 | 0.0 | 0.00 | 0.00 | 0.00 | 88 | 1014.5 |
| 20260831083114 | 78 | 181 | 0.0 | 0.0 | 0.00 | 0.00 | 0.00 | 88 | 1014.5 |
| 20260831082629 | 78 | 181 | 0.0 | 0.0 | 0.00 | 0.00 | 0.00 | 88 | 1014.5 |
| 20260831082134 | 78 | 181 | 0.0 | 0.0 | 0.00 | 0.00 | 0.00 | 88 | 1014.6 |
| 20260831081601 | 78 | 181 | 0.0 | 0.0 | 0.00 | 0.00 | 0.00 | 88 | 1014.7 |
| 20260831081112 | 78 | 181 | 0.0 | 0.0 | 0.00 | 0.00 | 0.00 | 88 | 1014.7 |
| 20260831080132 | 78 | 181 | 0.0 | 0.0 | 0.00 | 0.00 | 0.00 | 88 | 1014.7 |
| 20260831075637 | 78 | 182 | 0.0 | 0.0 | 0.00 | 0.00 | 0.00 | 88 | 1014.7 |
| 20260831075123 | 78 | 182 | 0.0 | 0.0 | 0.00 | 0.00 | 0.00 | 88 | 1014.7 |
| 20260831074551 | 78 | 182 | 0.0 | 1.7 | 0.00 | 0.00 | 0.00 | 88 | 1014.7 |
| 20260831074059 | 78 | 182 | 0.0 | 2.6 | 0.00 | 0.00 | 0.00 | 87 | 1014.6 |
| 20260831073121 | 78 | 182 | 0.9 | 2.6 | 0.00 | 0.00 | 0.00 | 87 | 1014.6 |
| 20260831072611 | 79 | 182 | 0.0 | 1.7 | 0.00 | 0.00 | 0.00 | 87 | 1014.6 |
| 20260831071634 | 79 | 183 | 0.0 | 0.0 | 0.00 | 0.00 | 0.00 | 86 | 1014.7 |
| 20260831071146 | 79 | 183 | 0.0 | 0.0 | 0.00 | 0.00 | 0.00 | 85 | 1014.8 |
| 20260831070638 | 79 | 183 | 0.0 | 0.0 | 0.00 | 0.00 | 0.00 | 85 | 1014.9 |
| 20260831070050 | 79 | 183 | 0.0 | 0.0 | 0.00 | 0.00 | 0.00 | 85 | 1014.8 |
| 20260831065620 | 79 | 183 | 0.0 | 0.0 | 0.00 | 0.00 | 0.00 | 85 | 1014.9 |
| 20260831065049 | 79 | 184 | 0.0 | 0.0 | 0.00 | 0.00 | 0.00 | 85 | 1014.9 |
| 20260831064542 | 79 | 184 | 0.0 | 2.6 | 0.00 | 0.00 | 0.00 | 85 | 1014.9 |
| 20260831064120 | 79 | 184 | 0.9 | 2.6 | 0.00 | 0.00 | 0.00 | 85 | 1014.9 |
| 20260831063549 | 79 | 184 | 0.9 | 2.6 | 0.00 | 0.00 | 0.00 | 84 | 1014.9 |
| 20260831063041 | 80 | 184 | 0.9 | 2.6 | 0.00 | 0.00 | 0.00 | 84 | 1014.9 |
| 20260831062550 | 80 | 184 | 1.7 | 2.6 | 0.00 | 0.00 | 0.00 | 84 | 1014.9 |
| 20260831062101 | 80 | 183 | 0.9 | 3.5 | 0.00 | 0.00 | 0.00 | 84 | 1014.9 |
| 20260831061541 | 80 | 183 | 0.9 | 3.5 | 0.00 | 0.00 | 0.00 | 84 | 1014.8 |
| 20260831061043 | 80 | 184 | 1.7 | 3.5 | 0.00 | 0.00 | 0.00 | 83 | 1014.9 |
| 20260831060620 | 80 | 184 | 1.7 | 4.3 | 0.00 | 0.00 | 0.00 | 83 | 1014.9 |
| 20260831060057 | 80 | 169 | 2.6 | 5.2 | 0.00 | 0.00 | 0.00 | 83 | 1014.8 |
| 20260831055540 | 80 | 180 | 2.6 | 4.3 | 0.00 | 0.00 | 0.00 | 83 | 1014.8 |
| 20260831055049 | 81 | 181 | 2.6 | 4.3 | 0.00 | 0.00 | 0.00 | 82 | 1014.8 |
| 20260831054553 | 81 | 174 | 1.7 | 7.0 | 0.00 | 0.00 | 0.00 | 82 | 1014.8 |
| 20260831054103 | 81 | 172 | 3.5 | 7.0 | 0.00 | 0.00 | 0.00 | 82 | 1014.7 |
| 20260831053547 | 81 | 170 | 3.5 | 7.8 | 0.00 | 0.00 | 0.00 | 82 | 1014.7 |
| 20260831053048 | 81 | 166 | 3.5 | 7.8 | 0.00 | 0.00 | 0.00 | 81 | 1014.6 |
| 20260831052557 | 81 | 150 | 5.2 | 7.8 | 0.00 | 0.00 | 0.00 | 81 | 1014.6 |
| 20260831052059 | 81 | 145 | 5.2 | 8.7 | 0.00 | 0.00 | 0.00 | 81 | 1014.6 |
| 20260831051559 | 82 | 173 | 4.3 | 8.7 | 0.00 | 0.00 | 0.00 | 81 | 1014.6 |
| 20260831051042 | 82 | 150 | 6.1 | 8.7 | 0.00 | 0.00 | 0.00 | 80 | 1014.6 |
| 20260831050554 | 82 | 150 | 5.2 | 7.8 | 0.00 | 0.00 | 0.00 | 80 | 1014.5 |
| 20260831045540 | 82 | 179 | 4.3 | 7.0 | 0.00 | 0.00 | 0.00 | 79 | 1014.4 |
| 20260831045053 | 82 | 171 | 4.3 | 7.0 | 0.00 | 0.00 | 0.00 | 79 | 1014.4 |
| 20260831044658 | 83 | 180 | 4.3 | 7.0 | 0.00 | 0.00 | 0.00 | 79 | 1014.5 |
| 20260831044047 | 83 | 171 | 5.2 | 7.0 | 0.00 | 0.00 | 0.00 | 78 | 1014.4 |
| 20260831043109 | 83 | 179 | 3.5 | 7.8 | 0.00 | 0.00 | 0.00 | 78 | 1014.3 |
| 20260831042624 | 83 | 161 | 4.3 | 7.0 | 0.00 | 0.00 | 0.00 | 77 | 1014.4 |
| 20260831041625 | 84 | 170 | 4.3 | 7.0 | 0.00 | 0.00 | 0.00 | 77 | 1014.3 |
| 20260831041116 | 84 | 181 | 4.3 | 8.7 | 0.00 | 0.00 | 0.00 | 76 | 1014.3 |
| 20260831040613 | 84 | 190 | 6.1 | 7.8 | 0.00 | 0.00 | 0.00 | 76 | 1014.4 |
| 20260831040045 | 84 | 184 | 4.3 | 7.8 | 0.00 | 0.00 | 0.00 | 76 | 1014.3 |
| 20260831035151 | 84 | 178 | 6.1 | 13.0 | 0.00 | 0.00 | 0.00 | 75 | 1014.1 |
| 20260831034557 | 85 | 171 | 7.0 | 13.0 | 0.00 | 0.00 | 0.00 | 75 | 1014.1 |
| 20260831034101 | 85 | 176 | 6.1 | 10.4 | 0.00 | 0.00 | 0.00 | 74 | 1014.0 |
| 20260831033613 | 85 | 156 | 6.1 | 12.2 | 0.00 | 0.00 | 0.00 | 74 | 1013.9 |
| 20260831033042 | 85 | 161 | 7.0 | 12.2 | 0.00 | 0.00 | 0.00 | 74 | 1013.8 |
| 20260831032544 | 85 | 163 | 7.0 | 9.6 | 0.00 | 0.00 | 0.00 | 74 | 1013.7 |
| 20260831031606 | 86 | 164 | 6.1 | 9.6 | 0.00 | 0.00 | 0.00 | 73 | 1013.7 |
| 20260831031118 | 86 | 174 | 6.1 | 9.6 | 0.00 | 0.00 | 0.00 | 72 | 1013.6 |
| 20260831030628 | 86 | 153 | 6.1 | 12.2 | 0.00 | 0.00 | 0.00 | 72 | 1013.5 |
| 20260831030050 | 86 | 167 | 7.0 | 12.2 | 0.00 | 0.00 | 0.00 | 71 | 1013.6 |
| 20260831025602 | 86 | 190 | 5.2 | 9.6 | 0.00 | 0.00 | 0.00 | 71 | 1013.6 |
| 20260831024619 | 87 | 164 | 5.2 | 7.8 | 0.00 | 0.00 | 0.00 | 71 | 1013.5 |
| 20260831024131 | 87 | 185 | 4.3 | 7.8 | 0.00 | 0.00 | 0.00 | 70 | 1013.3 |
| 20260831023637 | 87 | 173 | 4.3 | 7.0 | 0.00 | 0.00 | 0.00 | 70 | 1013.1 |
| 20260831023104 | 87 | 178 | 3.5 | 7.8 | 0.00 | 0.00 | 0.00 | 69 | 1013.1 |
| 20260831022608 | 87 | 177 | 6.1 | 9.6 | 0.00 | 0.00 | 0.00 | 69 | 1013.0 |
| 20260831021610 | 87 | 162 | 7.0 | 8.7 | 0.00 | 0.00 | 0.00 | 68 | 1012.8 |
| 20260831021114 | 87 | 150 | 5.2 | 8.7 | 0.00 | 0.00 | 0.00 | 68 | 1012.8 |
| 20260831020626 | 88 | 166 | 6.1 | 8.7 | 0.00 | 0.00 | 0.00 | 68 | 1012.8 |
| 20260831015548 | 88 | 136 | 4.3 | 7.8 | 0.00 | 0.00 | 0.00 | 66 | 1012.7 |
| 20260831014610 | 88 | 157 | 3.5 | 7.8 | 0.00 | 0.00 | 0.00 | 65 | 1012.4 |
| 20260831014057 | 89 | 190 | 4.3 | 7.0 | 0.00 | 0.00 | 0.00 | 64 | 1012.4 |
| 20260831013603 | 89 | 184 | 5.2 | 7.0 | 0.00 | 0.00 | 0.00 | 63 | 1012.3 |
| 20260831013155 | 89 | 172 | 5.2 | 8.7 | 0.00 | 0.00 | 0.00 | 62 | 1012.3 |
| 20260831012624 | 90 | 182 | 5.2 | 8.7 | 0.00 | 0.00 | 0.00 | 61 | 1012.4 |
| 20260831012128 | 90 | 172 | 4.3 | 6.1 | 0.00 | 0.00 | 0.00 | 60 | 1012.4 |
| 20260831011553 | 90 | 188 | 4.3 | 8.7 | 0.00 | 0.00 | 0.00 | 59 | 1012.3 |
| 20260831011106 | 91 | 159 | 5.2 | 9.6 | 0.00 | 0.00 | 0.00 | 59 | 1012.3 |
| 20260831010609 | 91 | 183 | 5.2 | 9.6 | 0.00 | 0.00 | 0.00 | 55 | 1012.3 |
| 20260831010042 | 91 | 180 | 6.1 | 9.6 | 0.00 | 0.00 | 0.00 | 54 | 1012.2 |
| 20260831005651 | 92 | 146 | 4.3 | 7.8 | 0.00 | 0.00 | 0.00 | 53 | 1012.1 |
| 20260831005132 | 92 | 143 | 2.6 | 6.1 | 0.00 | 0.00 | 0.00 | 53 | 1012.1 |
| 20260831004542 | 92 | 142 | 3.5 | 6.1 | 0.00 | 0.00 | 0.00 | 52 | 1012.1 |
| 20260831004047 | 93 | 144 | 3.5 | 6.1 | 0.00 | 0.00 | 0.00 | 52 | 1012.0 |
| 20260831003116 | 93 | 144 | 2.6 | 7.0 | 0.00 | 0.00 | 0.00 | 51 | 1011.9 |
| 20260831002559 | 93 | 143 | 3.5 | 7.8 | 0.00 | 0.00 | 0.00 | 51 | 1012.0 |
| 20260831001614 | 94 | 152 | 3.5 | 7.8 | 0.00 | 0.00 | 0.00 | 51 | 1012.0 |
| 20260831001105 | 94 | 144 | 4.3 | 9.6 | 0.00 | 0.00 | 0.00 | 50 | 1012.1 |
| 20260831000106 | 95 | 143 | 7.0 | 11.3 | 0.00 | 0.00 | 0.00 | 50 | 1012.0 |
| 20260830235600 | 95 | 125 | 7.0 | 10.4 | 0.00 | 0.00 | 0.00 | 49 | 1012.1 |
| 20260830234602 | 95 | 136 | 7.0 | 10.4 | 0.00 | 0.00 | 0.00 | 48 | 1012.1 |
| 20260830234114 | 95 | 144 | 7.0 | 10.4 | 0.00 | 0.00 | 0.00 | 48 | 1012.1 |
| 20260830233135 | 96 | 135 | 7.8 | 10.4 | 0.00 | 0.00 | 0.00 | 49 | 1012.1 |
| 20260830232546 | 96 | 144 | 4.3 | 10.4 | 0.00 | 0.00 | 0.00 | 49 | 1012.2 |
| 20260830231546 | 96 | 144 | 8.7 | 11.3 | 0.00 | 0.00 | 0.00 | 49 | 1012.1 |
| 20260830231050 | 96 | 139 | 8.7 | 12.2 | 0.00 | 0.00 | 0.00 | 49 | 1012.1 |
| 20260830230123 | 96 | 146 | 5.2 | 13.0 | 0.00 | 0.00 | 0.00 | 48 | 1012.1 |
| 20260830225628 | 96 | 130 | 8.7 | 13.0 | 0.00 | 0.00 | 0.00 | 48 | 1012.2 |
| 20260830225140 | 96 | 142 | 8.7 | 11.3 | 0.00 | 0.00 | 0.00 | 48 | 1012.2 |
| 20260830224607 | 96 | 138 | 4.3 | 10.4 | 0.00 | 0.00 | 0.00 | 47 | 1012.2 |
| 20260830224051 | 97 | 156 | 5.2 | 10.4 | 0.00 | 0.00 | 0.00 | 46 | 1012.2 |
| 20260830223110 | 96 | 158 | 4.3 | 10.4 | 0.00 | 0.00 | 0.00 | 47 | 1012.2 |
| 20260830222621 | 97 | 106 | 3.5 | 11.3 | 0.00 | 0.00 | 0.00 | 47 | 1012.2 |
| 20260830221648 | 97 | 146 | 6.1 | 13.0 | 0.00 | 0.00 | 0.00 | 47 | 1012.2 |
| 20260830221139 | 97 | 136 | 7.0 | 13.0 | 0.00 | 0.00 | 0.00 | 47 | 1012.2 |
| 20260830220619 | 97 | 122 | 3.5 | 13.9 | 0.00 | 0.00 | 0.00 | 48 | 1012.3 |
| 20260830220050 | 97 | 115 | 3.5 | 13.9 | 0.00 | 0.00 | 0.00 | 47 | 1012.3 |
| 20260830215554 | 97 | 116 | 6.1 | 13.9 | 0.00 | 0.00 | 0.00 | 48 | 1012.4 |
| 20260830214623 | 97 | 144 | 2.6 | 7.0 | 0.00 | 0.00 | 0.00 | 47 | 1012.5 |
| 20260830214127 | 96 | 156 | 2.6 | 7.8 | 0.00 | 0.00 | 0.00 | 47 | 1012.5 |
| 20260830213639 | 96 | 180 | 5.2 | 8.7 | 0.00 | 0.00 | 0.00 | 47 | 1012.7 |
| 20260830213109 | 96 | 153 | 2.6 | 9.6 | 0.00 | 0.00 | 0.00 | 47 | 1012.7 |
| 20260830212553 | 96 | 123 | 6.1 | 11.3 | 0.00 | 0.00 | 0.00 | 47 | 1012.7 |
| 20260830211614 | 96 | 138 | 6.1 | 12.2 | 0.00 | 0.00 | 0.00 | 47 | 1012.8 |
| 20260830211127 | 96 | 123 | 4.3 | 10.4 | 0.00 | 0.00 | 0.00 | 47 | 1012.8 |
| 20260830210639 | 96 | 160 | 6.1 | 13.9 | 0.00 | 0.00 | 0.00 | 48 | 1012.8 |
| 20260830210100 | 96 | 125 | 7.0 | 13.0 | 0.00 | 0.00 | 0.00 | 48 | 1012.9 |
| 20260830205553 | 96 | 115 | 6.1 | 12.2 | 0.00 | 0.00 | 0.00 | 48 | 1012.9 |
| 20260830204611 | 97 | 180 | 7.0 | 12.2 | 0.00 | 0.00 | 0.00 | 48 | 1012.9 |
| 20260830204119 | 96 | 171 | 6.1 | 12.2 | 0.00 | 0.00 | 0.00 | 47 | 1013.1 |
| 20260830203630 | 96 | 180 | 4.3 | 13.9 | 0.00 | 0.00 | 0.00 | 47 | 1013.1 |
| 20260830203058 | 97 | 149 | 6.1 | 10.4 | 0.00 | 0.00 | 0.00 | 48 | 1013.3 |
| 20260830202603 | 96 | 146 | 4.3 | 8.7 | 0.00 | 0.00 | 0.00 | 50 | 1013.5 |
| 20260830201600 | 96 | 152 | 5.2 | 13.9 | 0.00 | 0.00 | 0.00 | 48 | 1013.6 |
| 20260830201113 | 96 | 240 | 2.6 | 12.2 | 0.00 | 0.00 | 0.00 | 48 | 1013.6 |
| 20260830200625 | 95 | 215 | 6.1 | 12.2 | 0.00 | 0.00 | 0.00 | 46 | 1013.8 |
| 20260830200045 | 96 | 165 | 7.8 | 12.2 | 0.00 | 0.00 | 0.00 | 46 | 1013.9 |
| 20260830195600 | 96 | 132 | 8.7 | 15.6 | 0.00 | 0.00 | 0.00 | 47 | 1014.0 |
| 20260830194622 | 95 | 199 | 5.2 | 8.7 | 0.00 | 0.00 | 0.00 | 51 | 1014.1 |
| 20260830194134 | 94 | 165 | 1.7 | 7.8 | 0.00 | 0.00 | 0.00 | 54 | 1014.2 |
| 20260830193630 | 95 | 192 | 1.7 | 10.4 | 0.00 | 0.00 | 0.00 | 54 | 1014.3 |
| 20260830193041 | 95 | 165 | 4.3 | 13.0 | 0.00 | 0.00 | 0.00 | 55 | 1014.4 |
| 20260830192553 | 95 | 121 | 7.0 | 13.0 | 0.00 | 0.00 | 0.00 | 54 | 1014.5 |
| 20260830192158 | 94 | 151 | 3.5 | 12.2 | 0.00 | 0.00 | 0.00 | 55 | 1014.4 |
| 20260830191604 | 94 | 215 | 2.6 | 10.4 | 0.00 | 0.00 | 0.00 | 55 | 1014.6 |
| 20260830191116 | 94 | 133 | 2.6 | 11.3 | 0.00 | 0.00 | 0.00 | 54 | 1014.7 |
| 20260830190133 | 94 | 244 | 5.2 | 14.8 | 0.00 | 0.00 | 0.00 | 53 | 1014.8 |
| 20260830185559 | 94 | 198 | 6.1 | 14.8 | 0.00 | 0.00 | 0.00 | 55 | 1014.9 |
| 20260830184600 | 93 | 190 | 5.2 | 10.4 | 0.00 | 0.00 | 0.00 | 57 | 1015.1 |
| 20260830184111 | 93 | 168 | 6.1 | 10.4 | 0.00 | 0.00 | 0.00 | 56 | 1015.2 |
| 20260830183110 | 93 | 146 | 4.3 | 8.7 | 0.00 | 0.00 | 0.00 | 57 | 1015.2 |
| 20260830182600 | 93 | 83 | 4.3 | 8.7 | 0.00 | 0.00 | 0.00 | 58 | 1015.3 |
| 20260830181621 | 92 | 144 | 5.2 | 9.6 | 0.00 | 0.00 | 0.00 | 60 | 1015.6 |
| 20260830181132 | 92 | 232 | 7.0 | 9.6 | 0.00 | 0.00 | 0.00 | 59 | 1015.6 |
| 20260830180541 | 92 | 184 | 3.5 | 10.4 | 0.00 | 0.00 | 0.00 | 60 | 1015.7 |
| 20260830180052 | 92 | 263 | 4.3 | 8.7 | 0.00 | 0.00 | 0.00 | 59 | 1015.8 |
| 20260830175556 | 91 | 235 | 2.6 | 7.0 | 0.00 | 0.00 | 0.00 | 62 | 1015.9 |
| 20260830174625 | 91 | 228 | 5.2 | 9.6 | 0.00 | 0.00 | 0.00 | 61 | 1016.1 |
| 20260830174130 | 91 | 195 | 2.6 | 9.6 | 0.00 | 0.00 | 0.00 | 61 | 1016.0 |
| 20260830173541 | 91 | 167 | 3.5 | 12.2 | 0.00 | 0.00 | 0.00 | 61 | 1016.1 |
| 20260830173124 | 91 | 200 | 7.0 | 12.2 | 0.00 | 0.00 | 0.00 | 60 | 1016.2 |
| 20260830172636 | 91 | 215 | 4.3 | 10.4 | 0.00 | 0.00 | 0.00 | 62 | 1016.2 |
| 20260830172140 | 91 | 224 | 7.0 | 10.4 | 0.00 | 0.00 | 0.00 | 61 | 1016.4 |
| 20260830171610 | 91 | 146 | 2.6 | 8.7 | 0.00 | 0.00 | 0.00 | 62 | 1016.4 |
| 20260830171101 | 90 | 169 | 2.6 | 8.7 | 0.00 | 0.00 | 0.00 | 63 | 1016.4 |
| 20260830170640 | 90 | 194 | 5.2 | 8.7 | 0.00 | 0.00 | 0.00 | 62 | 1016.6 |
| 20260830170111 | 90 | 182 | 5.2 | 11.3 | 0.00 | 0.00 | 0.00 | 65 | 1016.5 |
| 20260830165623 | 89 | 149 | 6.1 | 11.3 | 0.00 | 0.00 | 0.00 | 65 | 1016.6 |
| 20260830164618 | 88 | 259 | 0.0 | 8.7 | 0.00 | 0.00 | 0.00 | 71 | 1016.8 |
| 20260830164120 | 88 | 259 | 4.3 | 8.7 | 0.00 | 0.00 | 0.00 | 70 | 1016.9 |
| 20260830163631 | 88 | 217 | 4.3 | 11.3 | 0.00 | 0.00 | 0.00 | 71 | 1016.8 |
| 20260830163058 | 88 | 229 | 6.1 | 11.3 | 0.00 | 0.00 | 0.00 | 72 | 1016.9 |
| 20260830162603 | 88 | 194 | 2.6 | 9.6 | 0.00 | 0.00 | 0.00 | 71 | 1016.9 |
| 20260830161615 | 88 | 242 | 4.3 | 10.4 | 0.00 | 0.00 | 0.00 | 70 | 1016.9 |
| 20260830161115 | 88 | 174 | 6.1 | 10.4 | 0.00 | 0.00 | 0.00 | 70 | 1016.8 |
| 20260830160117 | 88 | 243 | 5.2 | 8.7 | 0.00 | 0.00 | 0.00 | 73 | 1016.7 |
| 20260830155626 | 87 | 229 | 4.3 | 8.7 | 0.00 | 0.00 | 0.00 | 73 | 1016.7 |
| 20260830155131 | 87 | 216 | 4.3 | 7.8 | 0.00 | 0.00 | 0.00 | 74 | 1016.7 |
| 20260830154555 | 86 | 217 | 5.2 | 7.8 | 0.00 | 0.00 | 0.00 | 76 | 1016.7 |
| 20260830154106 | 86 | 243 | 1.7 | 7.8 | 0.00 | 0.00 | 0.00 | 78 | 1016.7 |
| 20260830153047 | 86 | 209 | 4.3 | 7.0 | 0.00 | 0.00 | 0.00 | 78 | 1016.8 |
| 20260830152555 | 85 | 234 | 3.5 | 8.7 | 0.00 | 0.00 | 0.00 | 79 | 1016.7 |
| 20260830151624 | 85 | 199 | 6.1 | 8.7 | 0.00 | 0.00 | 0.00 | 80 | 1016.7 |
| 20260830151128 | 84 | 195 | 4.3 | 8.7 | 0.00 | 0.00 | 0.00 | 81 | 1016.7 |
| 20260830150141 | 84 | 209 | 6.1 | 10.4 | 0.00 | 0.00 | 0.00 | 83 | 1016.7 |
| 20260830145611 | 84 | 216 | 5.2 | 8.7 | 0.00 | 0.00 | 0.00 | 84 | 1016.8 |
| 20260830144613 | 83 | 241 | 4.3 | 8.7 | 0.00 | 0.00 | 0.00 | 86 | 1016.7 |
| 20260830144125 | 83 | 215 | 2.6 | 8.7 | 0.00 | 0.00 | 0.00 | 87 | 1016.7 |
| 20260830143105 | 82 | 199 | 5.2 | 7.8 | 0.00 | 0.00 | 0.00 | 89 | 1016.7 |
| 20260830142616 | 82 | 211 | 5.2 | 7.0 | 0.00 | 0.00 | 0.00 | 89 | 1016.7 |
| 20260830141616 | 81 | 190 | 3.5 | 7.0 | 0.00 | 0.00 | 0.00 | 90 | 1016.7 |
| 20260830141059 | 81 | 219 | 2.6 | 6.1 | 0.00 | 0.00 | 0.00 | 91 | 1016.6 |
| 20260830135614 | 80 | 171 | 3.5 | 5.2 | 0.00 | 0.00 | 0.00 | 93 | 1016.6 |
| 20260830134636 | 79 | 182 | 3.5 | 4.3 | 0.00 | 0.00 | 0.00 | 93 | 1016.6 |
| 20260830134127 | 79 | 164 | 3.5 | 5.2 | 0.00 | 0.00 | 0.00 | 94 | 1016.6 |
| 20260830133626 | 78 | 153 | 3.5 | 5.2 | 0.00 | 0.00 | 0.00 | 94 | 1016.5 |
| 20260830133053 | 78 | 172 | 2.6 | 5.2 | 0.00 | 0.00 | 0.00 | 94 | 1016.5 |
| 20260830132604 | 78 | 172 | 1.7 | 3.5 | 0.00 | 0.00 | 0.00 | 94 | 1016.5 |
| 20260830131626 | 77 | 151 | 0.0 | 0.0 | 0.00 | 0.00 | 0.00 | 94 | 1016.4 |
| 20260830131109 | 77 | 144 | 0.0 | 0.0 | 0.00 | 0.00 | 0.00 | 94 | 1016.4 |
| 20260830130139 | 77 | 140 | 0.0 | 0.0 | 0.00 | 0.00 | 0.00 | 94 | 1016.3 |
| 20260830125601 | 77 | 140 | 0.0 | 0.0 | 0.00 | 0.00 | 0.00 | 94 | 1016.2 |
| 20260830124630 | 76 | 141 | 0.0 | 0.0 | 0.00 | 0.00 | 0.00 | 94 | 1016.1 |
| 20260830124134 | 76 | 192 | 0.0 | 0.0 | 0.00 | 0.00 | 0.00 | 94 | 1016.1 |
| 20260830123646 | 76 | 192 | 0.0 | 0.0 | 0.00 | 0.00 | 0.00 | 94 | 1015.9 |
| 20260830123049 | 76 | 192 | 0.0 | 0.0 | 0.00 | 0.00 | 0.00 | 94 | 1015.9 |
| 20260830122655 | 76 | 193 | 0.0 | 0.0 | 0.00 | 0.00 | 0.00 | 94 | 1015.8 |
| 20260830122129 | 76 | 193 | 0.0 | 0.0 | 0.00 | 0.00 | 0.00 | 94 | 1015.8 |
| 20260830121548 | 76 | 193 | 0.0 | 0.0 | 0.00 | 0.00 | 0.00 | 94 | 1015.8 |
| 20260830121100 | 76 | 193 | 0.0 | 0.0 | 0.00 | 0.00 | 0.00 | 94 | 1015.7 |
| 20260830120122 | 76 | 193 | 0.0 | 0.0 | 0.00 | 0.00 | 0.00 | 94 | 1015.5 |
| 20260830115634 | 76 | 193 | 0.0 | 0.0 | 0.00 | 0.00 | 0.00 | 94 | 1015.5 |
| 20260830115137 | 76 | 194 | 0.0 | 0.0 | 0.00 | 0.00 | 0.00 | 94 | 1015.5 |
| 20260830114603 | 76 | 194 | 0.0 | 0.0 | 0.00 | 0.00 | 0.00 | 94 | 1015.5 |
| 20260830114113 | 76 | 194 | 0.0 | 0.0 | 0.00 | 0.00 | 0.00 | 94 | 1015.4 |
| 20260830113615 | 76 | 194 | 0.0 | 0.0 | 0.00 | 0.00 | 0.00 | 94 | 1015.4 |
| 20260830113047 | 76 | 194 | 0.0 | 0.0 | 0.00 | 0.00 | 0.00 | 94 | 1015.5 |
| 20260830112549 | 76 | 194 | 0.0 | 0.9 | 0.00 | 0.00 | 0.00 | 94 | 1015.4 |